Location: Newark
(52.3500°N, 175.9667°E)
Time: 20:47:57
(UTC+00:00)

SR - All Passes

Search period start: 17 April 2021 00:00
Search period end: 27 April 2021 00:00
Orbit: 573 x 882 km, 66.7° (Epoch: 17 April)

Date Brightness Start Highest point End Pass type
(mag) Time Alt. Az. Time Alt. Az. Time Alt. Az.
17 Apr - 00:57:30 10° NW 01:01:48 20° N 01:06:05 10° NE daylight
17 Apr - 02:40:41 10° NNW 02:45:49 29° NNE 02:50:48 10° E daylight
17 Apr - 04:22:53 10° NW 04:28:51 77° NE 04:34:28 10° SE daylight
17 Apr - 06:05:44 10° NW 06:10:26 26° WSW 06:14:55 10° SSW daylight
17 Apr - 19:00:18 10° SE 19:03:42 16° ESE 19:07:12 10° ENE daylight
17 Apr - 20:39:11 10° SSW 20:44:51 73° SE 20:50:48 10° NE daylight
17 Apr - 22:22:08 10° W 22:27:30 36° NNW 22:32:59 10° NNE daylight
18 Apr - 00:06:53 10° WNW 00:11:17 21° N 00:15:41 10° NE daylight
18 Apr - 01:50:42 10° NW 01:55:26 24° NNE 02:00:03 10° ENE daylight
18 Apr - 03:33:05 10° NW 03:38:53 51° NE 03:44:23 10° ESE daylight
18 Apr - 05:15:28 10° NW 05:20:59 43° WSW 05:26:11 10° S daylight
18 Apr - 19:49:50 10° S 19:55:12 45° ESE 20:00:49 10° NE daylight
18 Apr - 21:31:43 10° WSW 21:37:21 51° NW 21:43:10 10° NE daylight
18 Apr - 23:16:08 10° WNW 23:20:49 24° NNW 23:25:31 10° NE daylight
19 Apr - 01:00:32 10° NW 01:04:57 21° N 01:09:18 10° NE daylight
19 Apr - 02:43:15 10° NNW 02:48:44 36° NNE 02:54:00 10° E daylight
19 Apr - 04:25:28 10° NW 04:31:21 71° SW 04:36:53 10° SSE daylight
19 Apr - 06:09:12 10° WNW 06:12:26 15° WSW 06:15:35 10° SW daylight
19 Apr - 19:01:04 10° SSE 19:05:45 27° ESE 19:10:35 10° NE daylight
19 Apr - 20:41:36 10° SW 20:47:22 76° NW 20:53:21 10° NE daylight
19 Apr - 22:25:22 10° W 22:30:25 29° NNW 22:35:33 10° NNE daylight
20 Apr - 00:10:07 10° NW 00:14:25 20° N 00:18:42 10° NE daylight
20 Apr - 01:53:23 10° NNW 01:58:27 28° NNE 02:03:22 10° E daylight
20 Apr - 03:35:36 10° NW 03:41:32 74° NE 03:47:08 10° SE daylight
20 Apr - 05:18:23 10° NW 05:23:10 27° WSW 05:27:43 10° SSW daylight
20 Apr - 18:13:14 10° SE 18:16:27 16° ESE 18:19:45 10° ENE daylight
20 Apr - 19:51:52 10° SSW 19:57:33 70° SE 20:03:29 10° NE daylight
20 Apr - 21:34:44 10° W 21:40:09 38° NNW 21:45:41 10° NE daylight
20 Apr - 23:19:29 10° WNW 23:23:54 21° N 23:28:19 10° NE daylight
21 Apr - 01:03:22 10° NW 01:08:03 23° NNE 01:12:37 10° ENE daylight
21 Apr - 02:45:47 10° NW 02:51:32 49° NE 02:57:01 10° ESE daylight
21 Apr - 04:28:08 10° NW 04:33:42 45° WSW 04:38:55 10° S daylight
21 Apr - 19:02:35 10° S 19:07:55 43° ESE 19:13:29 10° NE daylight
21 Apr - 20:44:20 10° WSW 20:50:01 53° NW 20:55:52 10° NE daylight
21 Apr - 22:28:43 10° WNW 22:33:26 24° NNW 22:38:11 10° NE daylight
22 Apr - 00:13:11 10° NW 00:17:34 21° N 00:21:53 10° NE daylight
22 Apr - 01:55:57 10° NNW 02:01:23 35° NNE 02:06:35 10° E daylight
22 Apr - 03:38:10 10° NW 03:44:03 75° SW 03:49:34 10° SSE daylight
22 Apr - 05:21:45 10° WNW 05:25:11 16° WSW 05:28:29 10° SW daylight
22 Apr - 18:13:52 10° SSE 18:18:28 26° ESE 18:23:13 10° ENE daylight
22 Apr - 19:54:16 10° SW 20:00:03 79° NW 20:06:03 10° NE daylight
22 Apr - 21:37:57 10° W 21:43:03 29° NNW 21:48:14 10° NNE daylight
22 Apr - 23:22:44 10° NW 23:27:03 20° N 23:31:19 10° NE daylight
23 Apr - 01:06:03 10° NW 01:11:05 27° NNE 01:15:57 10° E daylight
23 Apr - 02:48:17 10° NW 02:54:13 71° NE 02:59:47 10° SE daylight
23 Apr - 04:31:01 10° NW 04:35:53 28° WSW 04:40:30 10° SSW daylight
23 Apr - 17:26:10 10° SE 17:29:11 15° ESE 17:32:16 10° ENE daylight
23 Apr - 19:04:34 10° SSW 19:10:15 67° ESE 19:16:10 10° NE daylight
23 Apr - 20:47:21 10° WSW 20:52:48 39° NW 20:58:22 10° NE daylight
23 Apr - 22:32:04 10° WNW 22:36:31 21° N 22:40:58 10° NE daylight
24 Apr - 00:16:02 10° NW 00:20:40 23° NNE 00:25:11 10° ENE daylight
24 Apr - 01:58:28 10° NW 02:04:11 48° NE 02:09:38 10° ESE daylight
24 Apr - 03:40:49 10° NW 03:46:24 48° WSW 03:51:38 10° S daylight
24 Apr - 18:15:20 10° S 18:20:38 40° ESE 18:26:09 10° NE daylight
24 Apr - 19:56:58 10° WSW 20:02:40 55° NW 20:08:33 10° NE daylight
24 Apr - 21:41:17 10° WNW 21:46:04 24° NNW 21:50:50 10° NE daylight
24 Apr - 23:25:49 10° NW 23:30:11 20° N 23:34:28 10° NE daylight
25 Apr - 01:08:38 10° NNW 01:14:01 34° NNE 01:19:10 10° E daylight
25 Apr - 02:50:50 10° NW 02:56:44 78° SW 03:02:14 10° SSE daylight
25 Apr - 04:34:19 10° WNW 04:37:55 17° WSW 04:41:22 10° SW daylight
25 Apr - 17:26:42 10° SSE 17:31:12 24° ESE 17:35:51 10° ENE daylight
25 Apr - 19:06:55 10° SW 19:12:43 83° NW 19:18:44 10° NE daylight
25 Apr - 20:50:33 10° W 20:55:42 30° NNW 21:00:53 10° NNE daylight
25 Apr - 22:35:21 10° NW 22:39:39 20° N 22:43:55 10° NE daylight
26 Apr - 00:18:44 10° NW 00:23:42 27° NNE 00:28:31 10° E daylight
26 Apr - 02:00:58 10° NW 02:06:53 68° NE 02:12:25 10° SE daylight
26 Apr - 03:43:40 10° NW 03:48:36 30° WSW 03:53:16 10° S daylight
26 Apr - 16:39:08 10° SE 16:41:56 14° ESE 16:44:47 10° ENE daylight
26 Apr - 18:17:16 10° SSW 18:22:57 64° ESE 18:28:51 10° NE daylight
26 Apr - 19:59:56 10° WSW 20:05:27 40° NW 20:11:03 10° NE daylight
26 Apr - 21:44:40 10° WNW 21:49:08 21° NNW 21:53:36 10° NE daylight
26 Apr - 23:28:42 10° NW 23:33:17 22° NNE 23:37:46 10° ENE daylight
